STARLINK-2221, 48571

Orbit data source: Space-Track

STARLINK-2221, 48571 is a payload satellite owned by SpaceX/Seattle (US) in LEO that was launched on Sat, 15 May 2021 UTC via an FALCON 9 launch vehicle from the Air Force Eastern Test Range (AFETR). Payload-class satellites include a variety of spacecraft equipped with specific instruments for various scientific and technological missions. These include communications satellites like Starlink; space stations such as the ISS; scientific satellites like the Hubble; Earth observation satellites from companies like Planet Labs, Umbra, and HawkEye 360; GPS; miniature CubeSats for education and research; and military/defense satellites.

Loading next visibility...
Identifier
48571, 2021-041U
Orbit
LEO
Country
Flag of USUS
Related business
Manufacturer
SpaceX/Seattle
Mission
Operational Commercial Communications
Bus & Motor
STARLINK, Unknown motor
Mass
260 kg wet, ~248 kg dry
Launch date (UTC)
2021-05-15 (5 years ago)
Launch vehicle
FALCON 9
Launch site
Air Force Eastern Test Range (AFETR)
Object type
Payload
Rocket body
Debris
Shape & HBR
Box + 1 Pan, 10.1 m
Radar Cross Section
13.562 m², Large (>1 m²)

Expand to show TLE details & history
Last TLE update: 2 days ago

TLE from 2 days ago
0 STARLINK-2221
1 48571U 21041U   26171.02681764 -.00000282  00000-0  26780-5 0  9995
2 48571  53.1602  23.4617 0001224  93.3935 266.7207 15.31701235280770
Epoch: 2026-06-20T00:38Z
TLE epoch observation values (Epoch: 2026-06-20T00:38:37.044Z)
Latitude
0.00004°
Longitude
105.56004°
Altitude
471.685 km
Speed
7.631 km/s
True Right ascension
01h 33m 50s
True Declination
0° 00' 00"
Sunlit
Object was in daylight at epoch
Visualization orbit readout
Latitude
Unknown
Longitude
Unknown
Altitude
Unknown
Speed
Unknown
Apparent Right ascension
Unknown
Apparent Declination
Unknown
Sunlit
N/A
Visualization observer readout
Local Sidereal Time
21:38:49
Azimuth
Unknown
Elevation
Unknown
Doppler factor
Unknown
Orbital elements
Apogee altitude
471.831 km
Perigee altitude
470.155 km
Semi-major axis
6,849.13 km
Eccentricity
0.00012
Inclination
53.1602°
RAAN
23.4617°
Arg. of periapsis
93.3935°
True anomaly
266.7067°
Mean anomaly
266.7207°
Eccentric anomaly
266.7137°
Mean motion
3.82904 °/min
Orbital period
94.02 mins
BSTAR
0.000002678
Loading maneuver chart data...
Computing Atmospheric mass density...
Loading historical data...
Loading historical data...
Loading historical data...
Loading historical data...
Loading historical data...
Loading historical data...
Loading historical data...

Documentation

Showing up to 5 results
|